User: anonymous   Login
Location: Shenandoah County Park
(38.9356°N, 78.4524°W)
Time: 13:05:55
(UTC-04:00)
Language:

Transit 2A Rocket - Orbit

View from above orbital plane
View from above orbital plane
View from above satellite
View from above satellite

Ground track
Ground track

The orbit data is extracted from the following two-line orbital elements,

1 00047U 60007C   24199.95006418  .00001257  00000-0  29170-3 0  9999
2 00047  66.6654 123.9927 0230523 290.6574  66.9951 14.43659409349802
Epoch (UTC): 17 July 2024 22:48:05
Eccentricity: 0.0230523
inclination: 66.6654°
perigee height: 582 km
apogee height: 910 km
right ascension of ascending node: 123.9927°
argument of perigee: 290.6574°
revolutions per day: 14.43659409
mean anomaly at epoch: 66.9951°
orbit number at epoch: 34980

The dashed part of the orbit path shows where the satellite is in the earth's shadow,  

DLR